GAF011 EDDW-ETNT

Flight info

Callsign GAF011
Flight time 1h 3m
Altitude 8000
Route OKWEL1L OKWEL DCT WTM DCT
Aircraft C172/L-SFG/C

Departure

Time 2026-04-23 18:43
Airport Bremen Airport (EDDW)

Arrival

Time 2026-04-23 19:46
Airport Wittmundhafen Air Base (ETNT)
Time Latitude Longitude Altitude Speed Heading
2026-04-23 18:22 53.05072 8.78374 15 ft 0 kts 49°
2026-04-23 18:37 53.05074 8.78375 15 ft 3 kts 18°
2026-04-23 18:37 53.05099 8.78419 15 ft 4 kts 48°
2026-04-23 18:38 53.05108 8.78471 14 ft 6 kts 141°
2026-04-23 18:38 53.05080 8.78506 14 ft 5 kts 136°
2026-04-23 18:38 53.05038 8.78566 14 ft 11 kts 139°
2026-04-23 18:38 53.04966 8.78653 13 ft 13 kts 180°
2026-04-23 18:39 53.04885 8.78663 15 ft 12 kts 156°
2026-04-23 18:39 53.04853 8.78783 15 ft 13 kts 89°
2026-04-23 18:39 53.04856 8.78942 14 ft 15 kts 89°
2026-04-23 18:39 53.04860 8.79107 16 ft 13 kts 89°
2026-04-23 18:40 53.04859 8.79252 19 ft 12 kts 113°
2026-04-23 18:40 53.04780 8.79295 17 ft 14 kts 178°
2026-04-23 18:40 53.04701 8.79211 16 ft 14 kts 254°
2026-04-23 18:40 53.04697 8.79163 17 ft 0 kts 266°
2026-04-23 18:42 53.04697 8.79120 17 ft 17 kts 268°
2026-04-23 18:42 53.04682 8.78638 42 ft 61 kts 268°
2026-04-23 18:42 53.04633 8.77947 286 ft 56 kts 274°
2026-04-23 18:42 53.04605 8.77320 475 ft 60 kts 276°
2026-04-23 18:43 53.04599 8.76606 690 ft 67 kts 277°
2026-04-23 18:43 53.04586 8.75835 984 ft 65 kts 281°
2026-04-23 18:43 53.04574 8.75079 1246 ft 67 kts 283°
2026-04-23 18:43 53.04558 8.74314 1499 ft 66 kts 283°
2026-04-23 18:44 53.04543 8.73549 1762 ft 66 kts 286°
2026-04-23 18:44 53.04527 8.72787 2035 ft 67 kts 287°
2026-04-23 18:44 53.04511 8.72012 2300 ft 67 kts 287°
2026-04-23 18:44 53.04494 8.71224 2553 ft 68 kts 288°
2026-04-23 18:45 53.04682 8.70664 2786 ft 56 kts 323°
2026-04-23 18:45 53.04943 8.70181 3017 ft 56 kts 323°
2026-04-23 18:45 53.05203 8.69701 3245 ft 57 kts 323°
2026-04-23 18:45 53.05468 8.69211 3484 ft 57 kts 323°
2026-04-23 18:46 53.05735 8.68713 3692 ft 58 kts 323°
2026-04-23 18:46 53.06004 8.68210 3906 ft 58 kts 323°
2026-04-23 18:46 53.06274 8.67703 4115 ft 59 kts 323°
2026-04-23 18:46 53.06546 8.67189 4322 ft 59 kts 323°
2026-04-23 18:47 53.06822 8.66669 4521 ft 60 kts 322°
2026-04-23 18:47 53.07097 8.66147 4723 ft 60 kts 322°
2026-04-23 18:47 53.07368 8.65633 4909 ft 60 kts 322°
2026-04-23 18:47 53.07644 8.65110 5087 ft 60 kts 322°
2026-04-23 18:48 53.07922 8.64584 5263 ft 61 kts 322°
2026-04-23 18:48 53.08201 8.64053 5432 ft 61 kts 322°
2026-04-23 18:48 53.08483 8.63517 5597 ft 62 kts 321°
2026-04-23 18:48 53.08767 8.62977 5762 ft 62 kts 322°
2026-04-23 18:49 53.09053 8.62434 5922 ft 63 kts 322°
2026-04-23 18:49 53.09342 8.61885 6077 ft 63 kts 321°
2026-04-23 18:49 53.09632 8.61331 6232 ft 64 kts 321°
2026-04-23 18:49 53.09924 8.60775 6385 ft 64 kts 321°
2026-04-23 18:50 53.10119 8.60404 6483 ft 64 kts 321°
2026-04-23 18:50 53.10515 8.59650 6681 ft 65 kts 321°
2026-04-23 18:50 53.10827 8.59062 6758 ft 73 kts 320°
2026-04-23 18:50 53.11157 8.58434 6883 ft 73 kts 320°
2026-04-23 18:51 53.11490 8.57798 7012 ft 73 kts 320°
2026-04-23 18:51 53.11825 8.57160 7123 ft 73 kts 320°
2026-04-23 18:51 53.12161 8.56518 7236 ft 73 kts 320°
2026-04-23 18:51 53.12499 8.55874 7346 ft 74 kts 320°
2026-04-23 18:52 53.12838 8.55227 7454 ft 74 kts 320°
2026-04-23 18:52 53.13179 8.54577 7562 ft 75 kts 320°
2026-04-23 18:52 53.13521 8.53924 7661 ft 75 kts 320°
2026-04-23 18:52 53.13864 8.53270 7759 ft 75 kts 320°
2026-04-23 18:53 53.14208 8.52610 7861 ft 76 kts 320°
2026-04-23 18:53 53.14547 8.51960 7994 ft 75 kts 320°
2026-04-23 18:53 53.14892 8.51300 8121 ft 76 kts 320°
2026-04-23 18:53 53.15238 8.50638 8245 ft 76 kts 320°
2026-04-23 18:54 53.15593 8.49962 8320 ft 81 kts 320°
2026-04-23 18:54 53.15987 8.49214 8334 ft 90 kts 319°
2026-04-23 18:54 53.16414 8.48405 8335 ft 94 kts 319°
2026-04-23 18:54 53.16850 8.47572 8334 ft 96 kts 319°
2026-04-23 18:55 53.17290 8.46729 8333 ft 97 kts 319°
2026-04-23 18:55 53.17735 8.45876 8331 ft 97 kts 319°
2026-04-23 18:55 53.18182 8.45021 8332 ft 98 kts 318°
2026-04-23 18:55 53.18623 8.44174 8324 ft 98 kts 318°
2026-04-23 18:56 53.18926 8.43593 8322 ft 98 kts 318°
2026-04-23 18:56 53.19518 8.42456 8333 ft 98 kts 319°
2026-04-23 18:56 53.19966 8.41595 8334 ft 98 kts 319°
2026-04-23 18:56 53.20413 8.40736 8332 ft 98 kts 319°
2026-04-23 18:57 53.20860 8.39878 8328 ft 98 kts 319°
2026-04-23 18:57 53.21303 8.39027 8332 ft 98 kts 319°
2026-04-23 18:57 53.21749 8.38169 8331 ft 98 kts 319°
2026-04-23 18:57 53.22200 8.37301 8335 ft 98 kts 319°
2026-04-23 18:58 53.22646 8.36443 8335 ft 98 kts 318°
2026-04-23 18:58 53.23078 8.35610 8332 ft 98 kts 318°
2026-04-23 18:58 53.23524 8.34751 8331 ft 98 kts 318°
2026-04-23 18:58 53.23970 8.33893 8332 ft 98 kts 319°
2026-04-23 18:59 53.24417 8.33032 8330 ft 98 kts 319°
2026-04-23 18:59 53.24862 8.32173 8333 ft 98 kts 318°
2026-04-23 18:59 53.25307 8.31314 8326 ft 98 kts 318°
2026-04-23 18:59 53.25752 8.30457 8331 ft 98 kts 318°
2026-04-23 19:00 53.26197 8.29597 8331 ft 98 kts 318°
2026-04-23 19:00 53.26641 8.28739 8330 ft 97 kts 318°
2026-04-23 19:00 53.27084 8.27885 8334 ft 97 kts 318°
2026-04-23 19:00 53.27520 8.27041 8329 ft 97 kts 318°
2026-04-23 19:01 53.27960 8.26191 8331 ft 97 kts 318°
2026-04-23 19:01 53.28400 8.25341 8331 ft 96 kts 318°
2026-04-23 19:01 53.28838 8.24493 8330 ft 96 kts 318°
2026-04-23 19:01 53.29276 8.23647 8327 ft 96 kts 318°
2026-04-23 19:02 53.29567 8.23083 8323 ft 96 kts 318°
2026-04-23 19:02 53.30152 8.21950 8327 ft 96 kts 318°
2026-04-23 19:02 53.30585 8.21114 8291 ft 95 kts 319°
2026-04-23 19:02 53.31019 8.20276 8230 ft 95 kts 319°
2026-04-23 19:03 53.31449 8.19443 8182 ft 95 kts 319°
2026-04-23 19:03 53.31880 8.18609 8132 ft 94 kts 319°
2026-04-23 19:03 53.32308 8.17779 8084 ft 94 kts 319°
2026-04-23 19:03 53.32736 8.16948 8043 ft 94 kts 318°
2026-04-23 19:04 53.33161 8.16124 7992 ft 94 kts 318°
2026-04-23 19:04 53.33588 8.15295 7943 ft 93 kts 319°
2026-04-23 19:04 53.34021 8.14479 7846 ft 92 kts 324°
2026-04-23 19:04 53.34559 8.13914 7752 ft 91 kts 334°
2026-04-23 19:05 53.35105 8.13377 7663 ft 91 kts 333°
2026-04-23 19:05 53.35649 8.12844 7583 ft 90 kts 334°
2026-04-23 19:05 53.36190 8.12313 7468 ft 90 kts 333°
2026-04-23 19:05 53.36725 8.11790 7375 ft 90 kts 334°
2026-04-23 19:06 53.37266 8.11263 7266 ft 90 kts 334°
2026-04-23 19:06 53.37806 8.10736 7162 ft 90 kts 334°
2026-04-23 19:06 53.38345 8.10213 7074 ft 89 kts 334°
2026-04-23 19:06 53.38883 8.09691 6973 ft 89 kts 334°
2026-04-23 19:07 53.39421 8.09170 6881 ft 89 kts 334°
2026-04-23 19:07 53.39958 8.08652 6790 ft 89 kts 334°
2026-04-23 19:07 53.40491 8.08134 6685 ft 89 kts 334°
2026-04-23 19:07 53.41024 8.07616 6578 ft 88 kts 334°
2026-04-23 19:08 53.41546 8.07111 6488 ft 87 kts 336°
2026-04-23 19:08 53.42115 8.06782 6381 ft 87 kts 343°
2026-04-23 19:08 53.42688 8.06479 6273 ft 86 kts 343°
2026-04-23 19:08 53.43262 8.06175 6172 ft 87 kts 343°
2026-04-23 19:09 53.43836 8.05873 6074 ft 87 kts 343°
2026-04-23 19:09 53.44448 8.05541 6002 ft 98 kts 343°
2026-04-23 19:09 53.45107 8.05187 5936 ft 102 kts 343°
2026-04-23 19:09 53.45795 8.04820 5800 ft 104 kts 343°
2026-04-23 19:10 53.46484 8.04450 5697 ft 103 kts 343°
2026-04-23 19:10 53.47169 8.04078 5589 ft 103 kts 343°
2026-04-23 19:10 53.47853 8.03703 5490 ft 103 kts 343°
2026-04-23 19:10 53.48527 8.03332 5399 ft 103 kts 343°
2026-04-23 19:11 53.49208 8.02958 5311 ft 103 kts 343°
2026-04-23 19:11 53.49888 8.02588 5234 ft 102 kts 343°
2026-04-23 19:11 53.50567 8.02222 5150 ft 102 kts 343°
2026-04-23 19:11 53.51244 8.01857 5072 ft 102 kts 343°
2026-04-23 19:12 53.51700 8.01609 5017 ft 102 kts 343°
2026-04-23 19:12 53.52593 8.01123 4916 ft 102 kts 343°
2026-04-23 19:12 53.53271 8.00755 4759 ft 102 kts 344°
2026-04-23 19:12 53.53941 8.00400 4485 ft 101 kts 344°
2026-04-23 19:13 53.54611 8.00043 4236 ft 101 kts 344°
2026-04-23 19:13 53.55280 7.99693 4002 ft 100 kts 344°
2026-04-23 19:13 53.55937 7.99353 3768 ft 100 kts 344°
2026-04-23 19:13 53.56602 7.99008 3543 ft 100 kts 344°
2026-04-23 19:14 53.57264 7.98667 3318 ft 99 kts 343°
2026-04-23 19:14 53.57825 7.98039 3090 ft 107 kts 306°
2026-04-23 19:14 53.57905 7.96756 2984 ft 108 kts 283°
2026-04-23 19:14 53.57945 7.95575 2969 ft 96 kts 289°
2026-04-23 19:15 53.57938 7.94452 2977 ft 97 kts 283°
2026-04-23 19:15 53.57929 7.93274 2984 ft 105 kts 287°
2026-04-23 19:15 53.57926 7.91977 2898 ft 119 kts 274°
2026-04-23 19:15 53.57802 7.90596 2743 ft 123 kts 272°
2026-04-23 19:16 53.57647 7.89178 2569 ft 123 kts 271°
2026-04-23 19:16 53.57484 7.87755 2404 ft 122 kts 271°
2026-04-23 19:16 53.57305 7.86374 2236 ft 122 kts 270°
2026-04-23 19:17 53.56953 7.83620 1905 ft 119 kts 269°
2026-04-23 19:17 53.56782 7.82263 1735 ft 118 kts 268°
2026-04-23 19:17 53.56610 7.80929 1576 ft 116 kts 269°
2026-04-23 19:17 53.56440 7.79608 1411 ft 115 kts 267°
2026-04-23 19:18 53.56276 7.78303 1253 ft 114 kts 268°
2026-04-23 19:18 53.56107 7.76997 1096 ft 114 kts 268°
2026-04-23 19:18 53.56000 7.76145 987 ft 111 kts 267°
2026-04-23 19:18 53.55836 7.74872 821 ft 110 kts 266°
2026-04-23 19:19 53.55461 7.71939 467 ft 110 kts 263°
2026-04-23 19:19 53.55352 7.71090 361 ft 110 kts 261°
2026-04-23 19:20 53.55064 7.68894 97 ft 91 kts 263°
2026-04-23 19:20 53.54941 7.67903 35 ft 79 kts 264°
2026-04-23 19:20 53.54836 7.67106 24 ft 65 kts 263°
2026-04-23 19:20 53.54736 7.66368 63 ft 70 kts 265°
2026-04-23 19:21 53.54626 7.65509 121 ft 79 kts 264°
2026-04-23 19:21 53.54357 7.63435 364 ft 100 kts 263°
2026-04-23 19:21 53.54205 7.62325 617 ft 95 kts 261°
2026-04-23 19:22 53.54021 7.61262 856 ft 94 kts 264°
2026-04-23 19:22 53.53808 7.60209 1115 ft 95 kts 263°
2026-04-23 19:22 53.53335 7.58161 1607 ft 92 kts 263°
2026-04-23 19:23 53.53097 7.57187 1864 ft 90 kts 263°
2026-04-23 19:23 53.52889 7.56216 2109 ft 79 kts 289°
2026-04-23 19:23 53.53231 7.55732 2269 ft 71 kts 347°
2026-04-23 19:24 53.54169 7.55266 2692 ft 71 kts 358°
2026-04-23 19:24 53.54657 7.55440 2906 ft 74 kts 15°
2026-04-23 19:24 53.55762 7.56170 3001 ft 97 kts 14°
2026-04-23 19:25 53.57082 7.56962 2997 ft 98 kts 13°
2026-04-23 19:25 53.58342 7.57675 2997 ft 94 kts 12°
2026-04-23 19:26 53.59554 7.58347 2989 ft 91 kts 12°
2026-04-23 19:26 53.60159 7.58682 2985 ft 92 kts 12°
2026-04-23 19:27 53.61374 7.59353 2986 ft 92 kts 12°
2026-04-23 19:27 53.63207 7.60368 2988 ft 92 kts 12°
2026-04-23 19:28 53.64417 7.61038 2984 ft 91 kts 12°
2026-04-23 19:28 53.65623 7.61706 2985 ft 91 kts 12°
2026-04-23 19:29 53.66222 7.62037 2985 ft 90 kts 12°
2026-04-23 19:29 53.67419 7.62701 2985 ft 92 kts 12°
2026-04-23 19:30 53.68638 7.63379 2990 ft 92 kts 12°
2026-04-23 19:30 53.69250 7.63718 2988 ft 93 kts 12°
2026-04-23 19:30 53.70476 7.64399 2966 ft 93 kts 12°
2026-04-23 19:31 53.71059 7.64874 2973 ft 96 kts 28°
2026-04-23 19:31 53.71523 7.65725 2975 ft 103 kts 46°
2026-04-23 19:31 53.71778 7.66915 2975 ft 115 kts 70°
2026-04-23 19:31 53.71838 7.68275 2973 ft 117 kts 72°
2026-04-23 19:32 53.71905 7.69640 2978 ft 117 kts 73°
2026-04-23 19:32 53.71972 7.71011 2978 ft 117 kts 73°
2026-04-23 19:32 53.72038 7.72354 2977 ft 116 kts 73°
2026-04-23 19:32 53.72104 7.73709 2975 ft 115 kts 72°
2026-04-23 19:33 53.72170 7.75056 2975 ft 115 kts 72°
2026-04-23 19:33 53.72237 7.76405 2976 ft 115 kts 73°
2026-04-23 19:33 53.72369 7.79092 2974 ft 115 kts 73°
2026-04-23 19:34 53.72434 7.80450 2976 ft 117 kts 73°
2026-04-23 19:34 53.72501 7.81821 2974 ft 117 kts 73°
2026-04-23 19:34 53.72633 7.84572 2977 ft 117 kts 73°
2026-04-23 19:35 53.72698 7.85945 2977 ft 117 kts 73°
2026-04-23 19:35 53.72764 7.87313 2976 ft 116 kts 73°
2026-04-23 19:35 53.72828 7.88668 2974 ft 115 kts 72°
2026-04-23 19:35 53.72893 7.90015 2973 ft 115 kts 72°
2026-04-23 19:36 53.72951 7.91359 2972 ft 116 kts 77°
2026-04-23 19:36 53.72736 7.92736 2973 ft 129 kts 108°
2026-04-23 19:36 53.72113 7.93888 2975 ft 138 kts 142°
2026-04-23 19:36 53.71198 7.94432 2976 ft 141 kts 171°
2026-04-23 19:37 53.70248 7.94748 2974 ft 141 kts 168°
2026-04-23 19:37 53.69289 7.95089 2973 ft 141 kts 168°
2026-04-23 19:37 53.68332 7.95428 2973 ft 141 kts 168°
2026-04-23 19:37 53.67373 7.95768 2975 ft 141 kts 169°
2026-04-23 19:38 53.66415 7.96109 2966 ft 141 kts 169°
2026-04-23 19:38 53.65437 7.96455 2877 ft 147 kts 169°
2026-04-23 19:38 53.64412 7.96815 2737 ft 153 kts 169°
2026-04-23 19:38 53.63357 7.97187 2581 ft 157 kts 169°
2026-04-23 19:39 53.62283 7.97565 2416 ft 158 kts 169°
2026-04-23 19:39 53.61201 7.97947 2251 ft 159 kts 169°
2026-04-23 19:39 53.60127 7.97990 2095 ft 154 kts 199°
2026-04-23 19:39 53.59202 7.97241 1971 ft 141 kts 229°
2026-04-23 19:40 53.58616 7.96074 1970 ft 122 kts 253°
2026-04-23 19:40 53.58356 7.94798 1968 ft 111 kts 272°
2026-04-23 19:40 53.58200 7.93529 1956 ft 111 kts 271°
2026-04-23 19:40 53.58039 7.92268 1954 ft 110 kts 271°
2026-04-23 19:41 53.57880 7.91016 1962 ft 108 kts 271°
2026-04-23 19:41 53.57724 7.89775 1955 ft 109 kts 271°
2026-04-23 19:41 53.57566 7.88521 1957 ft 110 kts 271°
2026-04-23 19:41 53.57409 7.87292 1959 ft 108 kts 271°
2026-04-23 19:42 53.57253 7.86063 1958 ft 107 kts 271°
2026-04-23 19:42 53.57098 7.84837 1958 ft 107 kts 271°
2026-04-23 19:42 53.56943 7.83615 1954 ft 107 kts 271°
2026-04-23 19:42 53.56786 7.82350 1850 ft 114 kts 270°
2026-04-23 19:43 53.56619 7.81008 1698 ft 120 kts 269°
2026-04-23 19:43 53.56445 7.79621 1518 ft 121 kts 269°
2026-04-23 19:43 53.56272 7.78265 1345 ft 119 kts 268°
2026-04-23 19:43 53.56101 7.76910 1162 ft 118 kts 267°
2026-04-23 19:44 53.55929 7.75565 976 ft 116 kts 266°
2026-04-23 19:44 53.55760 7.74245 790 ft 115 kts 265°
2026-04-23 19:44 53.55600 7.72936 617 ft 114 kts 265°
2026-04-23 19:44 53.55423 7.71760 539 ft 85 kts 261°
2026-04-23 19:45 53.55299 7.70804 427 ft 82 kts 268°
2026-04-23 19:45 53.55169 7.69830 287 ft 86 kts 264°
2026-04-23 19:45 53.55066 7.68900 156 ft 74 kts 272°
2026-04-23 19:45 53.54957 7.68057 33 ft 70 kts 262°
2026-04-23 19:46 53.54881 7.67424 26 ft 47 kts 258°
2026-04-23 19:46 53.54770 7.66683 73 ft 77 kts 266°
2026-04-23 19:46 53.54627 7.65743 195 ft 87 kts 261°
2026-04-23 19:46 53.54495 7.64696 278 ft 100 kts 267°
2026-04-23 19:47 53.54395 7.63883 291 ft 109 kts 265°
2026-04-23 19:47 53.54194 7.62272 505 ft 104 kts 267°
2026-04-23 19:47 53.54056 7.61126 679 ft 97 kts 266°
2026-04-23 19:47 53.54014 7.60052 842 ft 87 kts 302°
2026-04-23 19:48 53.54503 7.59626 1033 ft 82 kts 345°
2026-04-23 19:48 53.55044 7.59387 1217 ft 79 kts 343°
2026-04-23 19:48 53.55559 7.59136 1396 ft 75 kts 352°
2026-04-23 19:48 53.55949 7.59717 1584 ft 92 kts 64°
2026-04-23 19:49 53.56084 7.60757 1767 ft 91 kts 63°
2026-04-23 19:49 53.56243 7.61879 1794 ft 106 kts 64°
2026-04-23 19:49 53.56431 7.63128 1799 ft 114 kts 64°
2026-04-23 19:49 53.56637 7.64436 1799 ft 117 kts 64°
2026-04-23 19:50 53.56851 7.65777 1792 ft 120 kts 64°
2026-04-23 19:50 53.57068 7.67132 1797 ft 120 kts 64°
2026-04-23 19:50 53.57284 7.68480 1790 ft 119 kts 64°
2026-04-23 19:50 53.57504 7.69815 1802 ft 118 kts 64°
2026-04-23 19:51 53.57712 7.71161 1799 ft 119 kts 66°
2026-04-23 19:51 53.57878 7.72533 1794 ft 124 kts 78°
2026-04-23 19:51 53.57503 7.73928 1779 ft 141 kts 123°
2026-04-23 19:51 53.56807 7.75107 1650 ft 143 kts 149°
2026-04-23 19:52 53.56208 7.75550 1565 ft 141 kts 162°
2026-04-23 19:52 53.55072 7.75119 1482 ft 119 kts 243°
2026-04-23 19:52 53.54952 7.73871 1242 ft 112 kts 287°
2026-04-23 19:52 53.55107 7.72633 934 ft 103 kts 297°
2026-04-23 19:53 53.55340 7.71686 685 ft 82 kts 285°
2026-04-23 19:53 53.55281 7.70711 406 ft 82 kts 268°
2026-04-23 19:53 53.55173 7.69790 227 ft 78 kts 267°
2026-04-23 19:53 53.55061 7.68895 96 ft 75 kts 268°
2026-04-23 19:54 53.54960 7.68060 30 ft 67 kts 269°
2026-04-23 19:54 53.54882 7.67434 26 ft 56 kts 255°
2026-04-23 19:54 53.54764 7.66653 59 ft 83 kts 271°
2026-04-23 19:54 53.54637 7.65581 129 ft 102 kts 263°
2026-04-23 19:55 53.54471 7.64398 297 ft 103 kts 266°
2026-04-23 19:55 53.54540 7.63353 550 ft 89 kts 310°
2026-04-23 19:55 53.55120 7.63030 682 ft 93 kts 352°
2026-04-23 19:55 53.55707 7.62921 934 ft 84 kts 349°
2026-04-23 19:56 53.56309 7.62737 985 ft 93 kts 346°
2026-04-23 19:56 53.56973 7.62548 970 ft 103 kts 358°
2026-04-23 19:56 53.57627 7.63050 1049 ft 112 kts 35°
2026-04-23 19:56 53.57896 7.64371 1097 ft 127 kts 84°
2026-04-23 19:57 53.57953 7.65818 1144 ft 122 kts 67°
2026-04-23 19:57 53.58195 7.67212 1144 ft 123 kts 63°
2026-04-23 19:57 53.58349 7.68107 1236 ft 119 kts 66°
2026-04-23 19:57 53.58537 7.69938 1340 ft 124 kts 77°
2026-04-23 19:58 53.58619 7.71418 1328 ft 128 kts 73°
2026-04-23 19:58 53.58729 7.72911 1362 ft 127 kts 76°
2026-04-23 19:58 53.58556 7.74340 1524 ft 130 kts 112°
2026-04-23 19:58 53.57818 7.75332 1522 ft 144 kts 162°
2026-04-23 19:59 53.56824 7.75656 1485 ft 147 kts 173°
2026-04-23 19:59 53.55860 7.75504 1478 ft 139 kts 212°
2026-04-23 19:59 53.55280 7.74321 1210 ft 126 kts 267°
2026-04-23 19:59 53.55245 7.72940 814 ft 113 kts 281°
2026-04-23 20:00 53.55348 7.71664 584 ft 109 kts 278°
2026-04-23 20:00 53.55252 7.70419 364 ft 108 kts 265°
2026-04-23 20:00 53.55108 7.69237 185 ft 85 kts 265°
2026-04-23 20:00 53.55002 7.68396 53 ft 68 kts 266°
2026-04-23 20:01 53.54920 7.67703 25 ft 51 kts 257°
2026-04-23 20:01 53.54818 7.67023 91 ft 67 kts 269°
2026-04-23 20:01 53.54684 7.66227 223 ft 72 kts 262°
2026-04-23 20:01 53.54531 7.65415 360 ft 74 kts 259°
2026-04-23 20:02 53.54371 7.64630 517 ft 76 kts 259°
2026-04-23 20:02 53.54165 7.63685 685 ft 91 kts 256°
2026-04-23 20:02 53.54018 7.62585 720 ft 106 kts 278°
2026-04-23 20:02 53.54052 7.61358 854 ft 102 kts 279°
2026-04-23 20:03 53.54078 7.60186 1010 ft 100 kts 282°
2026-04-23 20:03 53.54089 7.59018 1134 ft 98 kts 281°
2026-04-23 20:03 53.54024 7.57906 1354 ft 97 kts 267°
2026-04-23 20:03 53.53807 7.56804 1507 ft 102 kts 264°
2026-04-23 20:04 53.53488 7.55710 1681 ft 111 kts 238°
2026-04-23 20:04 53.52717 7.55267 1829 ft 125 kts 174°
2026-04-23 20:04 53.51857 7.55385 1987 ft 126 kts 178°
2026-04-23 20:04 53.50982 7.55432 2143 ft 127 kts 182°
2026-04-23 20:05 53.50414 7.55700 2219 ft 126 kts 138°
2026-04-23 20:05 53.49785 7.57197 2415 ft 118 kts 113°
2026-04-23 20:05 53.49340 7.58368 2545 ft 120 kts 113°
2026-04-23 20:05 53.48888 7.59568 2667 ft 122 kts 113°
2026-04-23 20:06 53.48587 7.60364 2758 ft 122 kts 113°
2026-04-23 20:06 53.48134 7.61568 2892 ft 122 kts 113°
2026-04-23 20:06 53.47679 7.62776 3023 ft 122 kts 113°
2026-04-23 20:06 53.47225 7.63985 3150 ft 123 kts 113°
2026-04-23 20:07 53.46618 7.65596 3313 ft 123 kts 113°
2026-04-23 20:07 53.46308 7.66421 3395 ft 123 kts 113°
2026-04-23 20:07 53.45848 7.67640 3518 ft 124 kts 113°
2026-04-23 20:07 53.45387 7.68860 3634 ft 124 kts 113°
2026-04-23 20:08 53.44922 7.70081 3737 ft 125 kts 112°
2026-04-23 20:08 53.44459 7.71289 3847 ft 125 kts 113°
2026-04-23 20:08 53.43991 7.72518 3956 ft 125 kts 113°
2026-04-23 20:08 53.43522 7.73749 4030 ft 125 kts 113°
2026-04-23 20:09 53.43052 7.74980 4091 ft 126 kts 113°
2026-04-23 20:09 53.42582 7.76219 4147 ft 126 kts 113°
2026-04-23 20:09 53.42110 7.77460 4195 ft 126 kts 113°
2026-04-23 20:09 53.41638 7.78699 4248 ft 126 kts 113°
2026-04-23 20:10 53.41165 7.79939 4280 ft 126 kts 113°
2026-04-23 20:10 53.40692 7.81176 4323 ft 126 kts 113°
2026-04-23 20:10 53.40216 7.82412 4378 ft 126 kts 113°
2026-04-23 20:10 53.39742 7.83643 4426 ft 126 kts 113°
2026-04-23 20:11 53.39266 7.84874 4478 ft 126 kts 113°
2026-04-23 20:11 53.38797 7.86085 4603 ft 118 kts 113°
2026-04-23 20:11 53.38347 7.87220 4709 ft 117 kts 113°
2026-04-23 20:11 53.37891 7.88364 4785 ft 118 kts 113°
2026-04-23 20:12 53.37433 7.89503 4872 ft 118 kts 113°
2026-04-23 20:12 53.36975 7.90642 4950 ft 118 kts 113°
2026-04-23 20:12 53.36513 7.91791 4990 ft 122 kts 113°
2026-04-23 20:12 53.36056 7.93002 4996 ft 122 kts 103°
2026-04-23 20:13 53.35758 7.94317 4999 ft 121 kts 98°